Temp
48 47 48 47 47 50 47 47 50 52 52 52 51 52 52 51 50 51 54 54 54 52 51 51 50 49 48 48 47 46 45 44 42 44 45 46 50 50 50 49 50 50 51
52 50 47 47 47 46 46 47 47 48 49 49 50 50 50 49 50 50 52 55 54 53 53 51 51 53 48 47 47 46 45 46 45 42 43 44 46 47 48 47 51 56 52
51 50 47 47 47 46 46 48 48 48 48 49 50 49 48 48 48 49 49 50 50 51 49 49 48 48 46 46 46 46 47 47 45 43 43 45 46 46 46 47 48 50 53
52 49 47 47 50 50 50 48 47 48 48 49 48 48 48 47 48 48 49 48 49 50 50 49 48 47 46 46 47 46 46 45 45 44 44 44 45 46 45 45 46 47 48
53 50 48 48 49 49 50 49 50 48 48 48 48 47 46 47 49 47 47 48 48 48 50 51 50 54 57 53 47 45 44 44 44 44 43 43 44 44 45 48 45 46 46
53 53 50 49 50 50 49 49 48 48 51 52 51 48 45 49 49 51 50 47 49 48 48 49 50 53 53 54 55 55 49 44 43 43 43 43 44 44 45 45 45 44 45
50 52 51 50 50 52 52 52 52 52 51 51 51 51 46 46 48 48 51 48 48 48 48 48 50 52 50 48 50 53 53 53 52 46 44 44 45 46 45 44 44 46 47
50 51 51 51 50 51 52 49 48 51 48 47 47 46 45 47 47 47 48 48 47 48 48 48 48 48 48 47 49 50 50 50 50 52 47 48 48 48 47 47 46 45 47
51 51 52 52 51 53 52 52 49 48 48 48 47 47 46 46 47 47 47 47 48 48 49 48 48 48 49 47 51 51 53 53 55 53 51 50 48 47 48 44 44 45 45
54 55 53 52 52 53 53 53 53 50 49 49 49 48 50 47 45 46 46 47 47 47 49 48 50 48 48 47 51 50 49 53 51 53 54 54 51 53 52 48 46 45 44
54 55 54 52 50 50 49 53 52 52 52 49 48 47 47 47 46 46 46 47 46 48 49 49 50 49 46 45 46 44 46 47 48 45 48 49 50 50 51 48 46 46 44
55 53 52 51 52 52 46 46 48 48 48 47 48 46 45 46 47 46 44 45 48 51 54 50 50 46 44 45 46 45 45 46 46 48 48 47 48 49 50 51 50 48 48
52 51 51 51 51 50 46 44 45 44 45 44 45 43 44 46 45 46 45 45 47 51 49 50 45 46 47 49 47 47 48 48 46 47 45 45 45 47 48 49 50 49 48
50 51 50 50 53 50 48 45 43 41 41 43 44 43 42 43 43 44 46 45 49 52 48 50 50 49 48 50 50 49 49 47 46 44 44 45 46 47 47 45 46 45 45
51 50 50 52 53 53 52 46 46 42 42 41 40 40 41 42 45 43 41 44 43 45 45 48 48 48 48 48 48 48 48 47 47 45 45 46 47 47 47 45 44 44 43
50 50 49 50 53 53 47 46 44 44 42 41 40 40 44 44 43 42 42 42 42 43 48 46 45 45 46 46 46 46 46 47 46 46 45 45 46 46 46 46 45 43 43
49 50 49 52 49 48 47 45 45 47 46 44 43 42 41 43 41 42 42 45 43 46 46 44 44 45 45 45 44 44 44 44 44 45 44 44 46 47 46 45 45 44 44
51 49 49 50 50 49 50 47 46 45 46 46 47 45 46 44 43 42 42 46 48 46 44 44 44 45 44 44 44 43 43 43 43 43 44 44 44 44 46 44 44 43 42
53 52 52 54 53 51 49 49 47 46 45 45 46 47 47 44 42 44 45 46 45 44 44 44 44 44 43 43 42 42 41 41 41 42 42 43 43 43 43 43 43 41 41
51 50 48 51 52 51 51 50 48 48 46 46 46 46 48 48 48 47 46 46 45 44 44 44 44 43 43 42 41 40 39 39 39 40 41 41 42 42 42 42 43 43 41
52 52 49 52 54 51 51 51 50 48 47 47 47 48 41 47 47 46 45 45 45 44 44 44 42 42 41 41 40 39 39 38 38 39 39 41 41 42 42 42 43 43 41
56 53 55 54 55 53 52 52 51 50 49 48 48 48 39 47 46 46 46 46 46 46 45 44 42 41 41 40 39 38 37 37 37 37 39 40 41 43 43 43 43 42 41
55 58 58 56 56 54 52 52 51 51 50 50 49 50 50 48 47 47 48 47 46 45 44 44 43 41 39 39 39 37 36 36 35 36 37 39 41 42 42 42 43 41 41
53 54 56 58 60 59 57 52 51 48 51 51 50 50 49 48 48 48 47 47 46 45 44 44 43 42 41 39 38 37 36 34 35 37 38 39 41 42 43 43 43 44 43
53 53 54 55 54 54 58 58 53 54 53 52 51 51 49 49 48 49 47 47 46 45 44 43 42 43 42 40 38 38 34 32 34 32 37 40 44 44 45 43 45 43 44
53 54 53 54 56 54 53 54 60 55 52 53 52 50 50 49 49 48 47 47 47 45 44 42 43 43 42 39 38 34 32 32 34 33 37 42 45 44 44 45 46 44 43
MSLP
1027.14 1026.82 1026.53 1026.21 1025.74 1025.33 1024.94 1024.56 1024.08 1023.42 1023.05 1022.78 1022.56 1022.31 1022.19 1022.05 1021.78 1021.49 1021.25 1021.06 1020.88 1020.89 1020.88 1020.94 1021.21 1021.11 1021.13 1021.16 1021.29 1021.52 1021.91 1022.10 1022.47 1022.23 1021.90 1021.51 1021.09 1020.81 1020.62 1020.51 1020.31 1020.15 1019.91
1027.20 1026.98 1026.64 1026.34 1025.93 1025.55 1025.16 1024.79 1024.30 1023.90 1023.40 1023.13 1022.84 1022.80 1022.74 1022.55 1022.34 1022.07 1021.77 1021.51 1021.35 1021.32 1021.39 1021.46 1021.64 1021.56 1021.61 1021.64 1021.70 1021.92 1022.09 1022.14 1022.29 1022.47 1022.13 1021.76 1021.33 1020.88 1020.61 1020.53 1020.06 1019.64 1019.45
1027.19 1026.97 1026.68 1026.33 1026.07 1025.83 1025.44 1025.05 1024.57 1024.24 1023.92 1023.51 1023.27 1023.31 1023.22 1023.06 1022.81 1022.44 1022.11 1021.99 1021.92 1021.89 1021.99 1022.04 1022.10 1021.93 1022.03 1022.02 1022.06 1022.10 1022.15 1022.13 1022.21 1022.41 1022.35 1021.81 1021.38 1021.03 1020.70 1020.28 1019.83 1019.36 1018.88
1027.22 1026.99 1026.75 1026.42 1026.19 1025.85 1025.48 1025.20 1024.88 1024.57 1024.36 1024.06 1023.86 1023.80 1023.65 1023.50 1023.21 1022.89 1022.67 1022.53 1022.40 1022.48 1022.40 1022.29 1022.22 1022.13 1022.16 1022.14 1022.13 1022.14 1022.12 1022.27 1022.33 1022.32 1022.15 1021.87 1021.48 1020.99 1020.92 1020.66 1020.05 1019.43 1018.77
1027.21 1026.95 1026.73 1026.44 1026.11 1025.83 1025.59 1025.32 1025.01 1024.81 1024.65 1024.37 1024.24 1024.14 1023.96 1023.67 1023.43 1023.13 1022.97 1022.88 1022.80 1022.73 1022.60 1022.50 1022.30 1021.95 1021.80 1021.86 1022.00 1022.09 1022.16 1022.23 1022.19 1022.18 1022.08 1021.85 1021.51 1021.16 1020.96 1020.45 1020.29 1019.63 1018.78
1027.34 1027.02 1026.77 1026.45 1026.09 1025.84 1025.59 1025.36 1025.06 1024.79 1024.70 1024.50 1024.43 1024.43 1024.31 1024.05 1023.70 1023.26 1023.10 1023.14 1023.05 1022.93 1022.88 1022.57 1022.31 1022.06 1021.95 1021.78 1021.63 1021.56 1021.64 1021.91 1021.98 1021.99 1021.96 1021.91 1021.37 1021.02 1020.77 1020.57 1020.29 1019.99 1019.50
1027.57 1027.20 1026.92 1026.63 1026.25 1025.91 1025.65 1025.39 1025.18 1024.90 1024.74 1024.68 1024.52 1024.53 1024.46 1024.24 1023.93 1023.62 1023.23 1023.35 1023.21 1023.04 1022.87 1022.68 1022.40 1022.22 1022.30 1022.28 1021.86 1021.48 1021.23 1021.28 1021.45 1021.50 1021.52 1021.19 1020.87 1020.49 1020.39 1020.30 1020.13 1019.92 1019.47
1027.68 1027.37 1027.06 1026.81 1026.44 1026.03 1025.70 1025.51 1025.33 1025.08 1024.91 1024.91 1024.83 1024.78 1024.64 1024.42 1024.14 1023.91 1023.64 1023.51 1023.38 1023.16 1022.99 1022.95 1022.90 1022.76 1022.60 1022.34 1021.95 1021.49 1021.09 1020.82 1020.74 1020.85 1020.82 1020.32 1020.11 1019.82 1019.93 1019.75 1019.68 1019.50 1018.70
1027.65 1027.38 1027.03 1026.78 1026.35 1025.94 1025.72 1025.47 1025.34 1025.33 1025.20 1025.07 1025.03 1024.95 1024.82 1024.57 1024.25 1024.07 1023.87 1023.65 1023.46 1023.26 1023.14 1023.00 1023.01 1022.73 1022.31 1022.23 1021.99 1021.70 1021.28 1020.36 1019.88 1020.13 1019.82 1019.35 1019.31 1019.24 1019.11 1019.57 1019.50 1019.53 1019.18
1027.53 1027.22 1026.94 1026.74 1026.59 1026.30 1025.90 1025.68 1025.52 1025.38 1025.39 1025.26 1025.23 1025.18 1025.10 1024.90 1024.65 1024.18 1023.94 1023.77 1023.62 1023.38 1023.07 1022.93 1022.65 1022.63 1022.19 1022.03 1022.13 1021.98 1021.55 1020.75 1020.20 1019.74 1019.17 1018.77 1018.49 1018.28 1017.73 1018.31 1018.59 1019.01 1019.13
1027.29 1027.23 1027.04 1026.78 1026.65 1026.41 1026.16 1025.84 1025.68 1025.50 1025.45 1025.47 1025.49 1025.42 1025.28 1025.02 1024.82 1024.48 1024.13 1023.87 1023.69 1023.41 1023.09 1022.79 1022.33 1021.93 1022.01 1022.08 1021.99 1021.90 1021.61 1021.01 1020.42 1020.13 1019.57 1019.03 1018.51 1018.08 1017.74 1017.72 1018.01 1018.27 1018.41
1027.56 1027.31 1027.11 1026.93 1026.71 1026.55 1026.49 1026.24 1026.09 1025.87 1025.78 1025.84 1025.74 1025.68 1025.40 1025.20 1024.78 1024.57 1024.36 1024.07 1023.63 1023.42 1022.96 1022.51 1022.22 1021.90 1021.84 1021.61 1021.70 1021.49 1021.39 1020.98 1020.66 1020.31 1020.18 1019.96 1019.51 1018.95 1018.37 1017.86 1017.57 1017.56 1017.41
1027.62 1027.52 1027.28 1027.04 1026.85 1026.72 1026.76 1026.64 1026.60 1026.50 1026.44 1026.25 1026.11 1026.02 1025.79 1025.30 1025.05 1024.56 1024.12 1023.88 1023.38 1023.19 1022.91 1022.62 1022.25 1021.77 1021.57 1021.73 1021.64 1021.51 1021.34 1021.14 1021.09 1020.97 1020.84 1020.52 1020.00 1019.37 1018.70 1018.14 1017.64 1017.39 1017.13
1027.76 1027.55 1027.22 1027.03 1026.84 1026.71 1026.67 1026.80 1026.92 1027.02 1026.80 1026.66 1026.52 1026.35 1026.09 1025.70 1025.22 1024.89 1024.52 1024.04 1023.34 1023.01 1022.87 1022.59 1022.40 1022.33 1022.18 1022.27 1022.04 1021.97 1021.76 1021.57 1021.47 1021.38 1021.16 1020.50 1019.84 1019.38 1019.13 1018.88 1018.74 1018.37 1018.16
1027.73 1027.60 1027.30 1026.96 1026.77 1026.64 1026.68 1026.69 1026.76 1026.73 1026.75 1026.69 1026.67 1026.56 1026.25 1025.88 1025.39 1025.18 1025.05 1024.51 1023.98 1023.69 1023.43 1023.11 1023.03 1023.05 1022.99 1022.82 1022.56 1022.32 1022.12 1021.87 1021.76 1021.43 1021.21 1020.88 1020.34 1019.86 1019.59 1019.35 1019.20 1019.06 1019.07
1027.74 1027.61 1027.29 1026.89 1026.57 1026.29 1026.55 1026.77 1026.42 1026.35 1026.41 1026.48 1026.52 1026.51 1025.93 1025.57 1025.28 1024.97 1024.58 1024.11 1023.77 1023.38 1023.69 1023.98 1023.95 1023.81 1023.62 1023.53 1023.32 1023.15 1022.79 1022.53 1022.22 1021.71 1021.47 1021.21 1020.90 1020.44 1020.14 1019.82 1019.58 1019.65 1019.44
1027.59 1027.38 1027.04 1026.58 1026.38 1026.34 1026.28 1026.40 1026.47 1026.01 1025.81 1025.78 1025.77 1025.87 1025.93 1025.41 1025.21 1024.96 1024.55 1023.90 1023.91 1023.52 1024.26 1024.48 1024.31 1024.15 1024.10 1023.92 1023.72 1023.60 1023.55 1023.09 1022.59 1022.06 1021.90 1021.64 1021.19 1020.51 1020.48 1020.35 1020.16 1019.92 1019.66
1027.02 1026.90 1026.80 1026.36 1025.97 1025.63 1025.69 1025.54 1025.84 1026.03 1025.96 1025.69 1025.02 1025.22 1024.85 1024.87 1024.90 1024.85 1024.65 1023.94 1024.39 1024.41 1024.55 1024.68 1024.69 1024.54 1024.36 1024.25 1024.08 1023.98 1023.72 1023.31 1022.94 1022.58 1022.23 1021.94 1021.52 1021.25 1020.84 1020.76 1020.56 1020.32 1020.01
1026.81 1026.58 1026.19 1025.80 1025.40 1025.08 1024.92 1024.74 1025.12 1025.48 1025.70 1025.74 1025.47 1024.97 1024.68 1024.59 1024.64 1024.64 1024.51 1024.65 1024.94 1024.99 1024.92 1024.88 1024.85 1024.72 1024.59 1024.49 1024.41 1024.26 1024.06 1023.86 1023.57 1023.08 1022.70 1022.35 1021.96 1021.63 1021.29 1021.03 1020.81 1020.52 1020.26
1026.42 1026.15 1025.92 1025.63 1025.08 1024.80 1024.71 1024.82 1024.98 1025.02 1025.29 1025.49 1025.44 1025.24 1024.71 1024.69 1024.92 1024.94 1024.85 1024.85 1024.94 1025.02 1024.99 1025.02 1025.06 1024.96 1024.85 1024.74 1024.62 1024.49 1024.31 1024.08 1023.79 1023.40 1023.05 1022.66 1022.13 1021.75 1021.57 1021.22 1021.00 1020.79 1020.63
1026.08 1025.84 1025.56 1025.07 1024.64 1024.52 1024.59 1024.40 1024.40 1024.54 1024.76 1025.03 1025.00 1024.68 1024.60 1024.82 1025.05 1025.06 1024.94 1024.85 1024.84 1024.92 1024.98 1025.07 1025.13 1025.08 1025.02 1024.92 1024.80 1024.73 1024.62 1024.48 1024.22 1023.85 1023.35 1022.90 1022.42 1022.00 1021.56 1021.22 1021.04 1020.87 1020.79
1025.78 1025.49 1025.16 1024.95 1024.46 1024.15 1024.19 1023.87 1023.99 1024.32 1024.39 1024.64 1024.70 1024.52 1024.44 1024.61 1024.78 1024.85 1024.80 1024.75 1024.69 1024.68 1024.79 1024.90 1025.11 1025.09 1025.04 1025.00 1024.96 1024.90 1024.79 1024.65 1024.40 1024.08 1023.56 1023.06 1022.56 1022.05 1021.62 1021.35 1021.25 1021.12 1021.01
1025.50 1025.24 1025.00 1024.55 1024.18 1023.77 1023.89 1023.65 1023.70 1023.88 1024.05 1023.96 1024.06 1024.21 1024.26 1024.41 1024.53 1024.54 1024.48 1024.47 1024.47 1024.57 1024.66 1024.70 1024.88 1025.06 1025.02 1024.96 1024.89 1024.89 1024.79 1024.65 1024.50 1024.21 1023.78 1023.21 1022.68 1022.20 1021.83 1021.60 1021.39 1021.34 1021.19
1025.22 1025.08 1024.89 1024.59 1024.05 1023.77 1023.62 1023.58 1023.52 1023.39 1023.48 1023.61 1023.64 1023.66 1023.79 1023.97 1024.10 1024.10 1024.16 1024.12 1024.21 1024.34 1024.47 1024.56 1024.68 1024.84 1024.91 1024.92 1024.84 1024.75 1024.64 1024.52 1024.28 1023.93 1023.59 1023.17 1022.66 1022.23 1021.86 1021.62 1021.49 1021.31 1021.18
1024.68 1024.67 1024.49 1024.25 1024.18 1023.91 1023.60 1023.32 1023.02 1023.04 1023.03 1023.09 1023.22 1023.30 1023.34 1023.42 1023.60 1023.74 1023.89 1023.84 1023.87 1024.13 1024.37 1024.53 1024.68 1024.71 1024.74 1024.72 1024.68 1024.54 1024.38 1024.17 1023.90 1023.55 1023.12 1022.73 1022.41 1022.09 1021.79 1021.66 1021.46 1021.37 1021.20
1024.04 1024.10 1024.04 1023.86 1023.58 1023.40 1023.36 1023.16 1022.55 1022.73 1022.80 1022.81 1022.70 1022.78 1022.86 1023.02 1023.16 1023.36 1023.57 1023.57 1023.58 1023.85 1024.11 1024.40 1024.53 1024.57 1024.62 1024.65 1024.57 1024.41 1024.17 1023.92 1023.58 1023.17 1022.77 1022.33 1022.13 1021.97 1021.71 1021.57 1021.44 1021.34 1021.31
Wind_Speed
5 5 6 6 7 6 5 6 5 5 6 6 6 6 6 6 6 5 5 5 5 5 5 6 6 4 4 4 3 3 3 2 1 3 2 2 3 4 4 4 5 5 5
4 5 6 6 7 6 6 6 6 6 6 5 5 6 6 6 6 6 6 5 5 5 6 7 6 3 5 5 4 4 3 2 2 1 2 2 3 3 4 5 4 5 5
4 4 6 6 5 6 6 6 6 6 6 6 6 6 6 6 6 6 5 6 6 6 6 6 5 5 4 3 3 2 1 1 1 1 3 2 3 2 3 3 4 6 4
5 6 5 6 5 5 4 5 6 6 6 6 5 5 5 5 5 6 6 6 6 5 5 5 4 5 3 2 2 2 2 3 2 1 2 3 2 2 2 3 4 2 4
5 5 6 6 5 5 5 5 5 5 4 5 5 5 5 5 4 5 5 5 5 4 4 3 1 3 5 3 2 2 2 2 2 1 2 2 2 2 2 2 3 3 4
6 6 6 6 6 5 5 3 4 4 4 4 4 5 5 3 8 9 4 4 3 3 3 3 3 5 5 6 4 5 6 3 2 1 2 2 4 3 2 2 2 3 4
6 6 6 6 6 5 4 4 4 5 5 5 4 4 5 5 9 8 7 4 4 4 4 4 4 3 6 6 8 8 8 10 9 3 4 4 3 4 2 2 3 3 4
5 6 5 5 6 5 5 4 4 4 5 4 5 4 3 3 6 6 7 4 4 6 6 6 5 4 4 5 5 4 5 4 6 6 7 9 7 6 6 4 3 4 5
5 5 5 5 6 5 6 6 3 3 3 3 2 3 4 5 8 8 6 5 4 5 4 3 4 5 6 5 5 6 5 6 3 3 12 15 12 11 10 3 4 1 4
5 5 5 4 5 6 6 5 4 3 3 3 2 3 2 4 8 9 4 1 4 3 4 5 7 7 9 5 2 4 6 5 7 11 8 8 7 7 8 8 4 4 3
6 5 5 6 6 6 5 5 4 3 3 4 4 3 3 4 6 8 9 3 1 2 2 4 4 9 6 7 6 3 5 6 8 5 4 5 5 6 4 3 5 4 3
6 6 7 7 5 3 5 5 5 5 4 3 2 3 3 5 6 5 6 5 5 3 5 4 5 8 8 5 1 3 7 4 3 5 5 5 4 5 6 5 3 4 5
4 5 6 6 4 3 4 5 3 4 3 3 2 2 4 4 4 9 10 11 9 4 4 7 7 8 10 8 11 10 7 5 4 4 4 3 3 5 4 3 5 6 2
5 6 6 5 5 2 2 2 3 2 2 2 2 3 4 4 5 5 5 6 7 5 7 6 6 7 8 5 5 6 5 4 2 2 3 4 4 4 4 3 4 5 4
4 5 6 4 4 3 3 2 1 3 3 2 2 2 2 4 4 5 5 5 5 4 4 4 5 5 5 5 4 5 5 5 6 4 4 5 4 4 4 4 3 3 3
4 4 5 5 3 4 3 3 6 8 8 8 7 5 3 8 11 10 11 7 2 1 4 4 3 3 3 3 4 4 4 5 5 5 4 4 4 4 3 3 3 3 3
3 6 5 5 4 3 2 5 5 5 7 9 9 8 9 11 11 9 9 7 11 7 4 3 2 2 3 3 4 3 4 4 4 5 4 5 5 4 4 3 3 3 4
6 7 4 5 5 4 4 5 5 4 4 5 5 6 8 9 7 8 11 6 5 6 3 3 3 3 3 3 4 4 4 5 5 5 5 5 5 3 3 3 3 3 3
5 5 5 5 5 5 3 3 4 5 5 5 3 4 4 5 5 6 3 3 2 3 3 4 3 3 3 3 3 4 4 4 4 4 5 4 5 4 3 3 2 4 4
5 8 7 5 5 5 3 1 3 4 4 5 4 3 2 3 2 1 1 1 2 2 3 4 3 3 3 3 3 3 4 5 5 5 4 4 5 3 3 3 2 3 3
4 4 6 5 5 4 3 1 3 4 5 5 4 3 5 3 4 3 2 2 2 2 3 4 3 3 3 3 3 4 4 4 4 5 5 4 5 5 4 2 2 3 3
4 5 5 5 6 3 5 2 3 3 5 5 4 2 5 2 4 4 3 3 2 3 3 4 3 3 2 3 3 3 4 4 4 4 5 4 4 5 4 3 3 3 3
4 5 5 6 4 4 5 3 4 4 4 5 5 4 3 4 5 5 4 4 3 3 4 4 4 3 2 2 2 2 2 4 4 4 4 5 4 4 4 3 2 3 3
4 5 4 4 5 5 4 4 4 5 5 5 5 5 5 5 5 6 4 3 4 4 4 4 4 5 3 2 2 2 2 3 4 4 5 4 4 5 3 3 3 3 3
4 4 4 4 4 4 5 5 4 5 5 5 5 3 4 4 5 5 4 4 4 4 5 5 4 5 4 3 3 4 5 4 5 6 4 4 3 4 2 2 2 2 3
5 4 4 4 4 2 3 5 3 4 5 5 5 5 5 4 5 5 5 4 3 4 6 5 5 6 4 3 3 4 5 5 6 6 4 2 2 4 2 2 3 1 2
Wind_Direction
13 357 1 345 344 345 350 347 353 338 350 4 4 29 40 29 15 20 15 16 62 60 53 71 60 52 63 50 52 65 62 96 112 305 251 286 291 281 300 303 284 273 269
360 360 2 348 354 355 356 349 356 3 358 356 13 53 41 28 21 21 19 20 43 72 60 60 44 35 46 49 60 65 66 59 134 296 289 302 262 288 271 274 256 254 255
359 357 355 351 350 358 359 358 4 9 4 16 49 51 36 24 15 9 26 41 46 62 63 62 44 52 41 27 46 61 55 44 59 90 287 267 271 285 318 302 285 282 260
355 356 352 346 340 345 7 19 17 14 15 19 45 44 41 31 23 13 28 37 53 62 63 71 71 72 80 55 65 47 32 7 341 303 269 275 264 292 259 263 309 292 293
334 342 343 335 337 346 6 10 5 26 27 32 41 35 28 28 17 21 38 58 67 55 42 56 124 111 92 87 99 3 10 328 319 326 306 315 298 315 269 303 280 286 293
349 347 351 358 338 358 8 22 2 354 25 42 47 57 38 16 7 28 68 64 56 57 41 25 12 29 4 343 301 237 203 188 238 271 298 276 271 254 276 283 298 350 323
4 354 5 2 7 6 21 17 6 348 1 22 37 50 39 13 10 16 32 29 18 5 8 3 349 347 3 348 329 296 279 237 219 204 239 234 252 223 213 281 254 248 245
359 354 6 5 351 340 344 350 345 345 354 22 49 51 43 356 354 359 353 347 336 317 308 320 311 313 318 335 333 332 317 294 233 227 223 258 240 239 210 208 227 275 277
340 348 348 1 344 343 359 349 5 35 15 26 51 38 19 350 342 346 357 345 325 304 306 311 289 291 298 345 355 337 332 312 291 225 247 258 267 259 215 175 251 186 306
340 334 343 351 343 337 336 352 346 47 59 67 44 12 345 6 357 351 351 358 5 330 309 297 285 267 283 290 336 324 319 294 329 330 326 312 296 274 281 198 164 216 209
318 4 354 347 350 352 352 359 359 22 72 72 82 36 13 11 356 357 5 28 356 339 320 302 293 294 280 286 252 239 252 311 317 308 301 331 344 351 354 183 198 196 202
356 345 339 342 334 4 16 354 23 23 51 42 80 357 333 348 348 3 22 26 8 338 327 306 299 317 315 0 126 304 316 320 335 24 19 351 342 347 338 360 358 238 229
355 345 333 334 6 51 29 26 18 32 48 28 41 353 323 338 348 347 352 353 346 345 321 309 316 41 54 47 40 24 20 33 21 37 360 331 289 287 306 350 358 7 32
349 340 332 326 325 336 91 63 68 18 28 8 358 351 332 340 342 344 343 341 341 356 354 9 31 59 61 42 23 13 19 22 42 10 330 296 309 3 14 6 14 355 23
334 338 328 306 314 267 252 197 185 224 194 191 234 254 327 336 291 303 294 317 318 317 331 20 27 26 26 16 5 16 12 12 18 353 5 347 348 3 358 355 16 10 53
333 320 303 306 298 287 212 272 242 249 217 233 244 222 285 251 288 318 319 316 348 346 51 39 23 26 42 8 10 11 14 2 350 354 9 350 346 3 5 13 33 34 12
293 305 306 308 311 300 230 205 232 300 281 278 268 243 224 258 301 326 351 40 36 48 61 13 36 32 11 19 41 39 7 335 310 16 12 353 337 346 26 24 6 2 349
298 285 283 288 283 283 240 212 187 207 239 282 307 260 281 288 309 354 355 35 22 20 39 34 21 29 29 56 44 28 5 359 8 358 3 355 351 329 15 13 14 3 346
316 309 311 305 296 292 272 216 179 187 215 248 311 323 298 309 290 337 35 86 88 26 22 48 36 41 59 60 46 31 26 8 348 349 352 354 342 353 348 26 11 16 8
300 285 284 297 299 309 311 158 159 212 200 217 245 240 310 52 54 5 37 84 88 68 82 80 53 57 60 56 43 32 23 13 4 356 345 340 336 349 349 25 33 28 4
304 302 290 303 307 296 258 249 113 177 182 204 232 216 181 158 174 198 189 167 155 124 117 108 86 72 55 53 44 33 28 8 1 343 337 339 337 347 337 30 52 34 24
306 310 319 307 308 288 251 204 179 160 193 197 231 246 172 162 179 192 200 196 192 151 153 135 116 101 83 73 55 36 16 358 342 338 333 331 332 343 346 26 32 22 26
297 309 320 308 314 298 272 228 228 173 209 199 214 219 198 184 196 200 200 202 181 157 157 143 132 112 91 83 75 75 22 334 313 313 320 320 330 346 344 17 25 15 30
266 288 300 280 299 330 287 277 274 205 192 190 193 197 188 193 197 200 199 195 181 165 161 155 142 139 122 81 46 17 345 313 295 292 299 290 315 336 356 22 19 22 37
244 270 295 298 292 308 305 298 237 219 210 195 199 194 193 193 186 192 194 198 181 164 162 157 146 144 128 96 43 7 339 311 300 291 288 276 304 332 359 28 10 31 40
240 250 269 288 285 313 302 303 17 246 220 219 202 197 191 191 186 183 189 186 173 157 158 160 167 155 131 80 29 357 342 338 332 317 312 316 354 325 334 344 33 96 38